星链-6099 (STARLINK-6099 )

导读

STARLINK-6099是美国SpaceX星链卫星互联网项目中的一颗卫星,于2023年6月23日发射升空,属于星链星座部署任务的组成部分。星链项目旨在通过大规模低轨卫星星座,为全球提供高速宽带互联网服务,该卫星入轨后,参与星座组网,进一步扩充了星链低轨卫星通信网络的覆盖范围与服务能力。

基本信息
目录编号:
57108
目录名称:
STARLINK-6099
国际标识:
2023-090H
轨道中心:
EARTH
卫星名称:
星链-6099
卫星全名:
星链-6099 (STARLINK-6099 )
卫星状态:
在轨 (已飞行1087 天)
发射日期:
2023-06-23 UTC
国别 :
美国 (US)
星等 :
--
轨道信息
数据来源 国际轨道数据
星历时间: 2026-06-14T09:51:08+0800
20小时前
查看轨道信息
半长轴: 6861.196km
偏心率: 0.0002025
轨道倾角: 43.013°
近地点辐角 283.112°
升交点赤经 97.211°
平近点角 76.951°
近地点: 481.669km
远地点: 484.449km
周期: 94.267分钟
每日圈数: 15.275769
详细信息
固有亮度:
5
最大亮度:
2.4
卫星平台:
Starlink v1.5
覆盖范围:
全球
运营商:
太空探索技术公司
运营商所在国:
美国
制造商(研发单位):
太空探索技术公司
制造商所在国:
美国
使用方式:
暂无
卫星简介
星链(Starlink)计划是由太空探索技术公司(SpaceX)提出的一个巨型低轨卫星互联网星座项目,计划在2019年至2024年间在太空搭建由约1.2万颗卫星组成的“星链”网络,其中1584颗将部署在地球上空550千米处的近地轨道,并从2020年开始工作。该卫星仍在工作。
2D轨道图
3D轨道图
轨道高度分析图
轨道倾角分析图
轨道综合分析图
查看轨道综合分析图